Weather History for Tupelo, MS

Change the Weather History Date:

Sunday, March 25, 2012

  Actual Average Record
Temperature  
Mean Temperature 66 °F 56 °F  
Max Temperature 79 °F 68 °F 86 °F (2007)
Min Temperature 53 °F 45 °F 23 °F (1983)
Degree Days  
Heating Degree Days 0 9  
Month to date heating degree days 110 304  
Since 1 July heating degree days 2192 2735  
Cooling Degree Days 1 1  
Month to date cooling degree days 57 3  
Year to date cooling degree days 64 5  
Growing Degree Days 16 (Base 50)    
Moisture  
Dew Point 54 °F    
Average Humidity 66    
Maximum Humidity 93    
Minimum Humidity 39    
Precipitation  
Precipitation 0.00 in 0.15 in 2.36 in (2009)
Month to date precipitation 4.87 3.93  
Year to date precipitation 14.23 13.37  
Snow  
Snow 0.00 in 0.00 in T in (1930)
Month to date snowfall 0.0 0.3  
Since 1 July snowfall T 2.1  
Snow Depth 0.00 in    
Sea Level Pressure  
Sea Level Pressure 29.97 in    
Wind  
Wind Speed 7 mph (North)    
Max Wind Speed 17 mph    
Max Gust Speed 23 mph    
Visibility 10 miles    
Events      
T = Trace of Precipitation, MM = Missing Value Source: NWS Daily Summary

Daily Weather History Graph

Daily Weather History Graph

Search for Another Location

Airport:

Trip Planner

Search our weather history database for the weather conditions in past years. The results will help you decide how hot, cold, wet, or windy it might be!

Date:

Astronomy

Mar. 25, 2012 Rise Set
Actual Time 6:51 AM CDT 7:11 PM CDT
Civil Twilight 6:26 AM CDT 7:36 PM CDT
Nautical Twilight 5:56 AM CDT 8:05 PM CDT
Astronomical Twilight 5:26 AM CDT 8:35 PM CDT
Moon 8:13 AM CDT (3/25) 10:15 PM CDT (3/25)
Length of Visible Light 13h 10m
Length of Day
12h 19m
Waxing Crescent, 9% of the Moon is Illuminated
Mar 25
Waxing Crescent
Mar 30
First Quarter
Apr 6
Full
Apr 13
Last Quarter
Apr 21
New

Hourly Weather History & Observations

Time (CDT) Temp. Dew Point Humidity Pressure Visibility Wind Dir Wind Speed Gust Speed Precip Events Conditions
12:53 AM 57.9 °F 55.0 °F 90% 29.93 in 10.0 mi Calm Calm - N/A   Mostly Cloudy
1:53 AM 57.9 °F 55.0 °F 90% 29.93 in 10.0 mi Calm Calm - N/A   Overcast
2:53 AM 57.9 °F 55.0 °F 90% 29.92 in 10.0 mi West 5.8 mph - N/A   Overcast
3:53 AM 55.9 °F 53.1 °F 90% 29.92 in 10.0 mi NNE 3.5 mph - N/A   Clear
4:53 AM 55.0 °F 53.1 °F 93% 29.94 in 10.0 mi Calm Calm - N/A   Clear
5:53 AM 55.0 °F 53.1 °F 93% 29.95 in 8.0 mi WNW 5.8 mph - N/A   Partly Cloudy
6:53 AM 53.1 °F 52.0 °F 96% 29.97 in 6.0 mi Calm Calm - N/A   Clear
7:53 AM 57.0 °F 53.1 °F 87% 29.99 in 10.0 mi Calm Calm - N/A   Clear
8:53 AM 63.0 °F 54.0 °F 72% 29.99 in 10.0 mi NNW 4.6 mph - N/A   Clear
9:53 AM 66.0 °F 55.9 °F 70% 30.00 in 10.0 mi NE 5.8 mph - N/A   Clear
10:53 AM 70.0 °F 57.0 °F 63% 30.01 in 10.0 mi NNE 11.5 mph - N/A   Clear
11:53 AM 73.0 °F 55.9 °F 55% 29.99 in 10.0 mi NNW 4.6 mph - N/A   Scattered Clouds
12:53 PM 73.9 °F 55.0 °F 52% 29.97 in 10.0 mi NNW 5.8 mph 16.1 mph N/A   Scattered Clouds
1:53 PM 77.0 °F 55.0 °F 47% 29.96 in 10.0 mi NNE 11.5 mph - N/A   Scattered Clouds
2:53 PM 78.1 °F 52.0 °F 40% 29.94 in 10.0 mi North 12.7 mph 23.0 mph N/A   Mostly Cloudy
3:53 PM 78.1 °F 52.0 °F 40% 29.94 in 10.0 mi NNW 11.5 mph 23.0 mph N/A   Scattered Clouds
4:53 PM 75.0 °F 50.0 °F 41% 29.95 in 10.0 mi NNE 12.7 mph - N/A   Scattered Clouds
5:53 PM 75.0 °F 52.0 °F 44% 29.95 in 10.0 mi NNE 13.8 mph - N/A   Clear
6:53 PM 71.1 °F 53.1 °F 53% 29.96 in 10.0 mi NNE 10.4 mph - N/A   Clear
7:53 PM 69.1 °F 53.1 °F 57% 29.98 in 10.0 mi North 10.4 mph - N/A   Clear
8:53 PM 68.0 °F 54.0 °F 61% 30.00 in 10.0 mi North 9.2 mph - N/A   Clear
9:53 PM 64.9 °F 54.0 °F 68% 30.02 in 10.0 mi NNE 9.2 mph - N/A   Clear
10:53 PM 60.1 °F 54.0 °F 80% 30.03 in 10.0 mi NNE 6.9 mph - N/A   Clear
11:53 PM 59.0 °F 53.1 °F 81% 30.03 in 10.0 mi NNE 5.8 mph - N/A   Clear